Theta_e
344 343 342 344 342 344 340 336 333 326 326 333 335 342 344 343 345 346 345 345 345 345 343 343 345 346 348 351 351 351 351 351 351 351 351 353 354 355
345 344 343 344 343 343 339 337 336 329 325 333 337 339 341 343 345 345 345 349 347 343 342 342 342 344 345 346 346 346 347 347 347 347 347 348 349 351
343 338 338 342 341 341 341 341 340 336 332 335 336 335 336 337 338 340 344 347 348 343 342 341 340 341 342 342 342 343 344 344 344 344 345 345 346 347
342 341 340 348 342 342 342 341 340 339 336 332 335 336 335 336 335 335 340 347 347 347 341 339 338 337 337 337 337 338 338 339 339 339 340 342 343 345
343 342 342 341 341 341 342 339 340 341 339 337 335 336 337 336 337 339 340 341 344 345 340 339 337 336 335 334 333 332 331 332 332 332 334 335 338 340
344 342 342 344 344 342 341 340 340 339 337 336 336 336 337 338 338 336 337 338 340 346 346 341 340 338 336 333 332 331 328 326 327 326 327 328 331 335
344 345 345 347 346 344 345 342 338 336 336 334 333 333 333 333 333 335 335 337 337 341 340 339 338 340 340 335 338 336 331 328 325 323 323 323 324 326
343 344 346 346 344 341 340 341 342 339 335 334 333 332 332 333 333 334 333 331 330 337 336 337 338 336 339 338 338 334 331 329 326 324 323 322 321 322
344 344 346 351 345 345 338 337 338 337 338 335 332 331 330 332 333 331 330 332 336 336 339 336 336 335 338 339 333 332 330 328 326 325 324 323 321 321
343 343 342 344 344 342 338 334 329 326 326 327 327 327 325 325 323 324 323 324 328 333 337 333 334 335 337 339 334 332 329 326 325 323 322 320 318 316
342 344 344 343 332 331 332 325 321 320 326 327 325 325 325 327 326 321 319 318 319 321 334 332 332 332 333 336 339 333 328 324 322 322 321 318 315 314
341 336 330 337 322 322 323 320 317 318 319 320 320 321 323 324 327 324 322 319 319 321 329 331 328 330 327 330 332 335 333 322 318 317 317 317 314 320
338 328 326 319 316 316 319 321 320 319 320 318 319 320 322 323 325 326 328 324 325 326 331 331 327 326 327 327 329 331 331 327 325 322 311 311 311 318
335 328 323 315 311 311 318 319 319 320 318 318 317 318 319 322 324 327 330 329 331 331 331 332 329 327 325 323 326 328 329 327 325 323 322 315 310 311
330 325 317 311 310 311 317 319 320 319 317 316 316 323 326 328 325 325 328 329 329 330 335 331 332 331 328 325 324 323 328 327 328 325 323 322 323 322
324 321 318 317 318 320 319 319 318 318 317 316 321 325 326 326 320 322 323 325 325 326 334 335 334 334 329 328 328 326 330 330 331 333 332 331 329 326
320 320 319 318 318 318 317 317 317 316 316 317 320 322 319 319 319 321 320 322 326 326 329 331 328 327 324 325 324 326 325 329 331 330 330 328 329 330
319 320 318 318 317 317 316 315 315 319 316 317 316 316 316 317 318 318 318 318 323 324 324 328 326 325 323 320 324 324 326 327 326 327 327 325 325 325
317 319 319 319 318 317 316 315 315 316 316 316 315 315 316 316 316 314 314 314 315 315 315 315 316 320 318 315 323 315 319 319 317 319 317 319 320 320
321 320 317 320 319 318 317 316 315 315 315 316 315 316 315 315 315 313 312 310 310 310 310 311 313 315 317 315 317 315 307 313 311 314 314 316 311 313
317 316 317 319 320 320 318 317 317 316 316 316 316 316 316 315 313 313 312 305 308 308 308 309 310 317 312 313 309 309 311 307 311 310 309 307 306 304
320 319 317 320 324 321 319 317 317 316 316 316 316 317 317 316 316 315 314 313 312 310 310 310 311 312 310 309 307 308 309 311 310 311 312 312 308 306
322 321 320 318 321 322 322 318 318 318 318 318 318 318 318 317 317 317 316 315 314 312 311 311 311 311 311 311 312 313 313 314 312 310 310 311 311 312
Wind_Speed
5 4 4 3 4 5 3 4 4 2 3 3 4 7 4 5 8 6 4 7 9 14 14 15 15 16 16 15 13 11 11 11 10 11 10 11 13 16
3 4 3 3 4 5 4 3 3 3 2 4 4 3 3 3 4 4 5 7 7 9 11 12 14 16 16 13 12 12 12 11 11 11 11 10 10 12
4 4 5 2 3 3 4 3 4 4 3 3 3 1 3 4 4 4 4 5 4 7 9 10 12 12 13 12 12 12 13 13 12 12 11 11 11 12
5 4 5 2 3 4 4 5 4 4 4 3 2 2 5 1 2 4 5 5 4 6 8 9 11 11 11 12 13 13 14 13 12 12 11 10 11 10
5 6 6 4 4 3 4 4 3 2 3 3 3 1 3 2 3 3 4 5 4 8 9 10 10 10 11 12 13 14 14 13 13 12 13 12 12 14
6 6 6 6 5 5 4 5 4 4 3 2 2 3 3 1 1 2 4 2 4 3 6 7 5 8 11 12 13 13 14 14 13 14 14 13 13 16
6 6 6 6 7 6 4 4 4 3 3 3 3 2 2 2 3 2 3 4 4 3 3 3 3 3 4 8 10 14 13 14 15 15 14 14 14 14
6 6 5 6 6 8 8 6 6 4 3 3 2 3 3 3 2 3 2 2 3 1 2 3 3 4 4 5 10 13 13 15 15 15 16 16 15 15
6 5 5 4 6 6 5 5 4 2 2 3 3 3 3 2 3 4 2 3 4 3 2 6 3 4 4 5 11 13 15 15 15 16 15 16 17 16
6 7 7 5 5 6 5 3 2 1 1 1 3 5 4 4 3 3 3 5 5 6 5 7 3 5 3 5 11 14 15 15 16 15 16 16 15 15
5 6 6 6 7 8 6 5 1 2 3 1 4 7 8 8 6 1 3 3 4 3 5 4 4 3 2 4 5 14 15 14 13 14 13 12 13 11
4 4 5 7 11 10 7 6 4 4 3 3 3 4 5 6 9 5 3 4 3 5 4 5 2 3 3 2 2 2 2 6 10 12 13 13 11 5
4 3 2 11 10 8 7 6 6 5 3 2 3 3 4 4 4 4 5 5 5 6 5 2 2 2 2 2 2 0 1 1 0 0 5 7 10 8
5 4 6 10 10 10 7 7 7 5 2 1 1 2 2 3 3 5 7 7 7 8 4 4 3 3 3 2 3 1 1 1 1 1 2 3 3 5
5 10 14 13 11 7 8 8 6 2 1 0 1 2 3 3 5 5 5 5 5 2 2 3 4 2 2 2 1 1 2 2 1 2 1 2 2 2
9 9 10 9 6 6 4 5 4 3 2 1 3 2 3 3 3 2 3 4 1 2 4 6 2 3 2 2 3 1 1 2 2 2 1 0 1 2
10 6 5 4 4 4 2 3 3 2 1 2 2 2 2 3 3 3 2 3 3 2 3 3 6 7 6 4 3 3 2 2 3 3 2 2 1 2
4 4 3 4 5 5 4 3 2 4 2 1 1 2 2 3 3 3 2 3 2 3 3 3 3 1 2 4 7 2 3 2 2 3 2 2 1 3
3 4 5 5 5 5 5 4 4 4 4 2 1 1 1 1 3 4 3 2 3 2 3 2 3 2 2 2 2 7 2 2 2 3 3 2 2 2
3 4 4 5 5 5 5 5 4 3 3 3 2 1 1 1 2 2 2 2 3 3 2 3 4 4 2 1 1 2 3 2 2 2 2 2 3 3
4 4 5 5 5 5 5 5 5 4 4 3 3 2 2 2 1 2 1 2 2 2 3 3 2 2 1 1 3 4 3 2 3 3 2 1 2 3
5 6 5 5 7 6 5 5 5 4 4 3 3 3 3 3 3 4 4 3 2 2 1 1 1 1 1 2 2 3 3 2 3 7 7 5 3 2
8 7 7 6 6 7 7 5 5 5 5 4 4 4 4 4 4 4 4 5 4 3 3 2 1 1 2 3 3 2 2 2 2 3 3 5 12 15
Wind_Direction
224 226 216 208 189 191 182 164 164 226 272 242 206 225 214 207 229 225 237 246 250 245 239 228 222 224 224 217 220 226 231 229 234 249 256 244 239 239
237 221 219 246 190 186 194 205 187 183 237 212 244 256 269 259 283 278 267 289 282 258 244 226 218 220 220 217 215 217 223 225 232 242 243 241 244 243
234 226 256 250 200 196 194 184 204 176 212 292 243 286 279 255 280 294 285 265 260 239 235 225 223 225 216 211 217 221 220 222 223 231 239 241 242 248
228 227 245 249 271 217 194 200 203 204 182 237 262 276 234 283 273 274 254 250 260 258 253 243 237 227 218 213 214 219 220 217 219 226 232 237 243 245
213 204 236 245 262 219 207 210 207 202 214 203 257 271 276 251 303 277 290 290 251 256 255 255 251 243 230 227 226 220 216 214 219 223 225 224 229 244
218 212 212 213 219 225 207 219 220 203 210 226 251 254 244 299 243 274 297 271 291 273 247 236 217 234 232 225 225 222 219 218 220 221 226 228 225 232
226 225 228 226 218 215 189 217 179 191 205 222 244 259 248 247 219 232 247 284 294 249 268 248 217 228 252 241 241 227 230 224 219 221 222 222 222 224
226 231 236 232 221 223 209 197 176 182 195 198 222 226 258 243 237 230 214 254 297 314 261 289 176 243 233 220 223 226 220 216 219 225 227 225 221 221
213 216 229 213 186 170 161 143 110 103 201 180 228 230 249 225 349 297 265 257 258 259 238 272 197 249 226 234 228 229 226 225 227 226 226 230 222 225
210 208 209 194 183 172 168 144 87 16 358 293 240 263 255 273 237 248 269 276 281 259 209 263 193 240 215 232 226 229 233 230 227 227 226 225 226 222
207 199 183 190 174 165 149 158 181 296 313 341 301 289 288 286 254 253 263 251 282 257 205 230 218 248 227 254 238 228 228 230 236 241 232 225 220 225
190 183 223 172 160 157 151 161 182 217 234 304 321 318 309 302 300 226 226 234 242 304 237 196 198 169 287 261 297 268 224 239 229 232 230 217 196 196
182 171 191 142 141 144 149 161 185 169 219 243 286 297 298 295 291 277 241 221 228 233 263 214 252 195 214 285 306 356 66 97 101 100 220 206 198 197
174 158 156 160 154 163 165 164 163 157 165 211 281 284 269 264 280 279 258 231 227 239 277 211 257 202 198 195 239 328 20 52 118 24 99 118 209 243
166 168 160 169 176 168 180 156 139 130 118 38 303 289 280 296 307 307 300 295 259 230 279 241 213 203 191 205 247 315 32 350 30 40 46 163 181 201
147 146 157 158 179 152 146 135 133 158 158 225 245 260 301 341 330 302 308 305 37 40 21 25 24 197 168 202 173 164 207 40 25 4 358 340 203 207
127 122 141 143 159 166 158 172 152 129 189 233 290 330 359 338 318 323 342 321 38 30 21 18 58 62 50 19 68 37 38 41 34 10 26 349 349 341
127 139 158 155 169 176 170 173 154 193 203 163 302 313 35 343 313 333 13 343 38 28 41 353 7 72 61 39 35 43 44 52 24 14 22 339 308 45
150 144 159 176 181 173 163 178 190 188 154 148 236 326 9 50 355 12 360 340 353 22 11 1 17 37 66 22 36 32 11 13 3 11 13 359 317 344
153 150 182 177 173 169 172 180 195 168 169 166 184 244 120 66 22 11 9 337 349 342 344 11 43 50 72 63 347 284 13 25 38 40 359 326 273 323
178 187 169 169 182 179 177 183 178 178 180 163 161 215 200 141 217 242 280 312 341 10 26 27 349 61 105 37 11 343 326 244 205 189 226 332 322 323
175 192 174 171 178 193 179 178 181 183 189 192 211 204 224 192 214 226 214 226 252 234 244 252 277 75 82 120 224 262 283 316 259 257 246 215 185 290
182 185 182 190 184 190 190 176 184 193 198 198 204 239 220 211 211 217 224 219 225 229 217 280 299 240 251 203 204 284 299 329 338 337 314 248 247 269